Langdon, ND

10:37 PM CDT on April 27, 2017 (GMT -0500)
Langdon

Weather History for KD55 - July, 2013

Change the Weather History Date:

Thursday, July 25, 2013

  Actual Average (KDVL) Record (KDVL)
Temperature  
Mean Temperature 58 °F -  
Max Temperature 68 °F 81 °F 98 °F (1989)
Min Temperature 48 °F 57 °F 46 °F (1962)
Degree Days  
Heating Degree Days 7    
Growing Degree Days 8 (Base 50)    
Moisture  
Dew Point 52 °F    
Average Humidity 83    
Maximum Humidity 100    
Minimum Humidity 54    
Precipitation  
Precipitation 0.13 in - - ()
Sea Level Pressure  
Sea Level Pressure 29.97 in    
Wind  
Wind Speed 9 mph (NW)    
Max Wind Speed 28 mph    
Max Gust Speed 34 mph    
Visibility 8 miles    
Events Fog , Rain    
Averages and records for this station are not official NWS values.
T = Trace of Precipitation, MM = Missing Value Source: NWS Daily Summary

Daily Weather History Graph

Daily Weather History Graph

Search for Another Location

Airport or City:

Trip Planner

Search our weather history database for the weather conditions in past years. The results will help you decide how hot, cold, wet, or windy it might be!

Date:

Astronomy

Jul. 25, 2013 Rise Set
Actual Time 5:58 AM CDT 9:20 PM CDT
Civil Twilight 5:20 AM CDT 9:59 PM CDT
Nautical Twilight 4:29 AM CDT 10:49 PM CDT
Astronomical Twilight 3:21 AM CDT 11:55 PM CDT
Moon 10:36 PM CDT (7/25) 9:53 AM CDT (7/25)
Length of Visible Light 16h 38m
Length of Day
15h 22m
Waning Gibbous, 88% of the Moon is Illuminated
Jul 25
Waning Gibbous
Jul 29
Last Quarter
Aug 6
New
Aug 14
First Quarter
Aug 20
Full

Hourly Weather History & Observations

Time (CDT) Temp. Dew Point Humidity Pressure Visibility Wind Dir Wind Speed Gust Speed Precip Events Conditions
12:15 AM 51.8 °F 37.4 °F 58% 29.98 in 10.0 mi WSW 3.5 mph - N/A   Clear
12:35 AM 51.8 °F 37.4 °F 58% 29.97 in 10.0 mi Calm Calm - N/A   Clear
12:55 AM 51.8 °F 35.6 °F 54% 29.97 in 10.0 mi WSW 3.5 mph - N/A   Clear
1:15 AM 51.8 °F 37.4 °F 58% 29.97 in 10.0 mi WSW 4.6 mph - N/A   Clear
1:35 AM 53.6 °F 37.4 °F 54% 29.97 in 10.0 mi Calm Calm - N/A   Clear
1:55 AM 53.6 °F 37.4 °F 54% 29.96 in 8.0 mi WSW 3.5 mph - N/A   Clear
2:15 AM 53.6 °F 53.6 °F 100% 29.95 in 10.0 mi Calm Calm - N/A   Clear
2:35 AM 50.0 °F 50.0 °F 100% 29.95 in 9.0 mi SSW 3.5 mph - N/A   Clear
2:55 AM 50.0 °F 50.0 °F 100% 29.94 in 10.0 mi Calm Calm - N/A   Clear
3:15 AM 50.0 °F 50.0 °F 100% 29.93 in 0.2 mi Calm Calm - N/A Fog Fog
3:35 AM 50.0 °F 50.0 °F 100% 29.93 in 0.5 mi Calm Calm - N/A Fog Fog
3:55 AM 48.2 °F 48.2 °F 100% 29.94 in 0.8 mi SSW 4.6 mph - N/A   Mist
4:15 AM 50.0 °F 50.0 °F 100% 29.93 in 0.2 mi SSW 5.8 mph - N/A Fog Fog
4:35 AM 50.0 °F 50.0 °F 100% 29.94 in 0.2 mi SW 5.8 mph - N/A Fog Fog
4:55 AM 50.0 °F 50.0 °F 100% 29.94 in 0.2 mi SW 4.6 mph - N/A Fog Fog
5:15 AM 50.0 °F 50.0 °F 100% 29.93 in 0.2 mi South 6.9 mph - N/A Fog Fog
5:35 AM 50.0 °F 50.0 °F 100% 29.94 in 0.8 mi SW 5.8 mph - N/A   Mostly Cloudy
5:55 AM 50.0 °F 48.2 °F 94% 29.93 in 0.2 mi SSW 6.9 mph - N/A Fog Fog
6:15 AM 51.8 °F 51.8 °F 100% 29.93 in 5.0 mi SW 4.6 mph - N/A   Overcast
6:35 AM 53.6 °F 53.6 °F 100% 29.93 in 8.0 mi SW 4.6 mph - N/A   Mostly Cloudy
6:55 AM 55.4 °F 55.4 °F 100% 29.93 in 9.0 mi WSW 5.8 mph - N/A   Mostly Cloudy
7:15 AM 55.4 °F 55.4 °F 100% 29.94 in 9.0 mi WSW 10.4 mph - N/A   Overcast
7:35 AM 57.2 °F 48.2 °F 72% 29.94 in 9.0 mi West 13.8 mph - 0.03 in Rain Light Rain
7:55 AM 57.2 °F 48.2 °F 72% 29.94 in 10.0 mi WSW 10.4 mph - 0.03 in   Overcast
8:15 AM 59.0 °F 57.2 °F 94% 29.94 in 10.0 mi West 12.7 mph - N/A   Mostly Cloudy
8:35 AM 62.6 °F 60.8 °F 94% 29.93 in 10.0 mi West 16.1 mph - N/A   Mostly Cloudy
8:55 AM 62.6 °F 53.6 °F 72% 29.93 in 10.0 mi WNW 16.1 mph 23.0 mph N/A   Scattered Clouds
9:15 AM 64.4 °F 53.6 °F 68% 29.93 in 10.0 mi WNW 18.4 mph 24.2 mph N/A   Clear
9:35 AM 64.4 °F 55.4 °F 73% 29.93 in 10.0 mi NW 18.4 mph 23.0 mph N/A   Clear
9:55 AM 64.4 °F 55.4 °F 73% 29.94 in 10.0 mi NW 18.4 mph 23.0 mph N/A   Scattered Clouds
10:15 AM 64.4 °F 55.4 °F 73% 29.94 in 10.0 mi WNW 17.3 mph 26.5 mph N/A   Mostly Cloudy
10:35 AM 66.2 °F 59.0 °F 78% 29.94 in 10.0 mi NW 15.0 mph 24.2 mph N/A   Scattered Clouds
10:55 AM 66.2 °F 53.6 °F 64% 29.94 in 10.0 mi NW 17.3 mph 24.2 mph N/A   Scattered Clouds
11:15 AM 66.2 °F 51.8 °F 60% 29.94 in 10.0 mi NW 21.9 mph - N/A   Scattered Clouds
11:35 AM 66.2 °F 53.6 °F 64% 29.94 in 10.0 mi NW 16.1 mph 24.2 mph N/A   Scattered Clouds
11:55 AM 66.2 °F 51.8 °F 60% 29.94 in 10.0 mi NW 17.3 mph 25.3 mph N/A   Scattered Clouds
12:15 PM 66.2 °F 55.4 °F 68% 29.94 in 10.0 mi NW 15.0 mph 25.3 mph N/A   Mostly Cloudy
12:35 PM 66.2 °F 53.6 °F 64% 29.94 in 10.0 mi WNW 19.6 mph 24.2 mph N/A   Scattered Clouds
12:55 PM 68.0 °F 55.4 °F 64% 29.94 in 10.0 mi West 20.7 mph 27.6 mph N/A   Scattered Clouds
1:15 PM 68.0 °F 55.4 °F 64% 29.93 in 10.0 mi WNW 18.4 mph 27.6 mph N/A   Scattered Clouds
1:35 PM 68.0 °F 53.6 °F 60% 29.93 in 10.0 mi WNW 19.6 mph 29.9 mph N/A   Partly Cloudy
1:55 PM 68.0 °F 53.6 °F 60% 29.93 in 10.0 mi NW 23.0 mph 29.9 mph N/A   Scattered Clouds
2:15 PM 66.2 °F 50.0 °F 56% 29.94 in 10.0 mi NNW 27.6 mph 34.5 mph N/A   Mostly Cloudy
2:35 PM 64.4 °F 50.0 °F 59% 29.95 in 10.0 mi NNW 17.3 mph 26.5 mph N/A   Mostly Cloudy
2:55 PM 66.2 °F 50.0 °F 56% 29.95 in 10.0 mi NW 20.7 mph 25.3 mph N/A   Mostly Cloudy
3:15 PM 66.2 °F 50.0 °F 56% 29.96 in 10.0 mi NW 20.7 mph 26.5 mph N/A   Mostly Cloudy
3:35 PM 64.4 °F 51.8 °F 64% 29.95 in 10.0 mi NW 21.9 mph 29.9 mph N/A   Mostly Cloudy
3:55 PM 66.2 °F 50.0 °F 56% 29.96 in 10.0 mi NNW 21.9 mph 27.6 mph N/A   Overcast
4:15 PM 62.6 °F 60.8 °F 94% 29.97 in 10.0 mi North 16.1 mph 24.2 mph N/A   Mostly Cloudy
4:35 PM 59.0 °F 53.6 °F 82% 29.99 in 2.5 mi NNW 18.4 mph 31.1 mph 0.03 in Rain Rain
4:55 PM 59.0 °F 55.4 °F 88% 29.98 in 10.0 mi NNW 10.4 mph 17.3 mph 0.06 in   Mostly Cloudy
5:15 PM 60.8 °F 55.4 °F 82% 29.98 in 10.0 mi NNW 13.8 mph - N/A   Mostly Cloudy
5:35 PM 57.2 °F 53.6 °F 88% 30.00 in 2.5 mi NNW 13.8 mph - 0.02 in Rain Light Rain
5:55 PM 59.0 °F 55.4 °F 88% 29.99 in 10.0 mi NNW 10.4 mph 16.1 mph 0.03 in Rain Light Rain
6:15 PM 59.0 °F 59.0 °F 100% 29.99 in 10.0 mi NNW 9.2 mph - N/A   Mostly Cloudy
6:35 PM 59.0 °F 59.0 °F 100% 30.00 in 10.0 mi North 12.7 mph - N/A   Mostly Cloudy
6:55 PM 57.2 °F 57.2 °F 100% 30.00 in 3.0 mi NNW 15.0 mph - 0.01 in Rain Light Rain
7:15 PM 57.2 °F 57.2 °F 100% 30.01 in 10.0 mi North 13.8 mph 24.2 mph N/A   Overcast
7:35 PM 55.4 °F 55.4 °F 100% 30.02 in 10.0 mi North 15.0 mph 21.9 mph N/A   Mostly Cloudy
7:55 PM 53.6 °F 53.6 °F 100% 30.03 in 4.0 mi NNE 16.1 mph 21.9 mph N/A   Mostly Cloudy
8:15 PM 55.4 °F 55.4 °F 100% 30.04 in 10.0 mi North 15.0 mph - N/A   Mostly Cloudy
8:35 PM 55.4 °F 55.4 °F 100% 30.04 in 10.0 mi North 13.8 mph 18.4 mph N/A   Overcast
8:55 PM 55.4 °F 55.4 °F 100% 30.05 in 10.0 mi North 15.0 mph 21.9 mph N/A   Overcast
9:15 PM 53.6 °F 53.6 °F 100% 30.05 in 10.0 mi North 18.4 mph 23.0 mph N/A   Overcast
9:35 PM 53.6 °F 53.6 °F 100% 30.06 in 10.0 mi North 16.1 mph - N/A   Overcast
9:55 PM 53.6 °F 53.6 °F 100% 30.07 in 10.0 mi North 16.1 mph - N/A   Mostly Cloudy
10:15 PM 53.6 °F 53.6 °F 100% 30.07 in 10.0 mi North 17.3 mph 21.9 mph N/A   Mostly Cloudy
10:35 PM 53.6 °F 53.6 °F 100% 30.08 in 10.0 mi North 16.1 mph 25.3 mph N/A   Overcast
10:55 PM 53.6 °F 53.6 °F 100% 30.09 in 10.0 mi North 17.3 mph 24.2 mph N/A   Overcast
11:15 PM 53.6 °F 53.6 °F 100% 30.09 in 10.0 mi North 17.3 mph 25.3 mph N/A   Overcast
11:35 PM 53.6 °F 53.6 °F 100% 30.09 in 10.0 mi North 17.3 mph 27.6 mph N/A   Overcast
11:55 PM 53.6 °F 53.6 °F 100% 30.10 in 10.0 mi North 19.6 mph - N/A   Overcast